Skip Page Navigation
NASA JPL Caltech
NASA Logo - Jet Propulsion Laboratory + View the NASA Portal
+ Center for Near-Earth Object Studies
JPL Home Earth Solar System Stars & Galaxies Technology
JPL Solar System Dynamics
BODIES ORBITS EPHEMERIDES TOOLS PHYSICAL DATA DISCOVERY FAQ SITE MAP
IMPORTANT: The SSD Announcement email list is now available. Major changes are coming in the near future, including possible hostname and/or URL changes. To be notified of such changes, subscribe to this email list.

Please visit this page for more details.


JPL Small-Body Database Browser
Search: [ help ]  
523424 (2017 EE13)
Classification: Main-belt Asteroid          SPK-ID: 2523424
Ephemeris | Orbit Diagram | Orbital Elements | Mission Design | Physical Parameters | Discovery Circumstances | Close-Approach Data ]

[ show orbit diagram ]
Orbital Elements at Epoch 2458600.5 (2019-Apr-27.0) TDB
Reference: JPL 5 (heliocentric ecliptic J2000)
 Element Value Uncertainty (1-sigma)   Units 
e .01687446799076206 1.1499e-07  
a 3.088568485630784 7.0472e-08 au
q 3.036450535582731 3.557e-07 au
i 9.937274837592909 1.2125e-05 deg
node 144.0635186904004 5.5291e-05 deg
peri 12.37905980037939 0.00027323 deg
M 148.0474207813552 0.00026524 deg
tp 2457785.171496197776
(2017-Jan-31.67149620)
0.0014598 TDB
period 1982.596250712702
5.43
6.7856e-05
1.858e-07
d
yr
n .1815800871562162 6.2147e-09 deg/d
Q 3.140686435678837 7.1662e-08 au
  Orbit Determination Parameters
   # obs. used (total)      72  
   data-arc span      4493 days (12.30 yr)  
   first obs. used      2006-01-31  
   last obs. used      2018-05-21  
   planetary ephem.      DE431  
   SB-pert. ephem.      SB431-N16  
   condition code      0  
   norm. resid. RMS      .55373  
   source      ORB  
   producer      Otto Matic  
   solution date      2018-May-31 17:42:02  

Additional Information
 Earth MOID = 2.04778 au 
 Jupiter MOID = 1.84756 au 
 T_jup = 3.202 
[ show covariance matrix ]

Ephemeris | Orbit Diagram | Orbital Elements | Mission Design | Physical Parameters | Discovery Circumstances | Close-Approach Data ]

Physical Parameter Table
Parameter Symbol Value Units Sigma Reference Notes
absolute magnitude H 16.3   n/a MPO448233  

523424 (2017 EE13)          Discovered 2006-Jan-31 by Spacewatch at Kitt Peak
Reference: Last Updated: 2018-05-31

[ show close-approach data ]
Alternate Designations
 2017 EE13 = 2006 BD252 = 2011 AN34 
Ephemeris | Orbit Diagram | Orbital Elements | Mission Design | Physical Parameters | Discovery Circumstances | Close-Approach Data ]
ABOUT SSD CREDITS/AWARDS PRIVACY/COPYRIGHT GLOSSARY LINKS
FirstGov 2020-Jan-23 05:08 UT
(server date/time)  
NASA Home Page
Site Manager:   Ryan S. Park
Webmaster  Alan B. Chamberlin